When you browse on this site, cookies collect data to enhance your experience and personalize the content and advertising you see.
Visit our Privacy Policy to learn more. By continuing to use the site, you agree to this use of cookies and data.
  • En España
  • Lista de países
  • Para 7 días
  • Temperatura del agua
  • Mapa Satelital
  • El tiempo en el mapa
  • Informadores
  • user-avatar
    Iniciar sesión

    Tiempo cada hora Atzitzintla

    Hoy, 19 Febrero, Martes

    Tiempo Temperatura Precipitaciones Viento Presión Humedad
    00:00 +12°C° 0 mm 1 mps 552 mmHg 94%
    01:00 +12°C° 0 mm 1 mps 552 mmHg 94%
    02:00 +11°C° 0 mm 1 mps 551 mmHg 95%
    03:00 +10°C° 0 mm 1 mps 551 mmHg 95%
    04:00 +10°C° 0 mm 1 mps 550 mmHg 95%
    05:00 +10°C° 0 mm 1 mps 550 mmHg 95%
    06:00 +9°C° 0 mm 1 mps 550 mmHg 95%
    07:00 +11°C° 0.1 mm 1 mps 551 mmHg 87%
    08:00 +13°C° 0.1 mm 2 mps 552 mmHg 80%
    09:00 +14°C° 0.1 mm 2 mps 553 mmHg 73%
    10:00 +16°C° 0.1 mm 3 mps 554 mmHg 63%
    11:00 +18°C° 0.1 mm 3 mps 555 mmHg 52%
    12:00 +20°C° 0.1 mm 4 mps 556 mmHg 42%
    13:00 +20°C° 0.2 mm 5 mps 555 mmHg 38%
    14:00 +20°C° 0.2 mm 5 mps 555 mmHg 35%
    15:00 +21°C° 0.2 mm 5 mps 554 mmHg 31%
    16:00 +19°C° 0 mm 5 mps 553 mmHg 33%
    17:00 +18°C° 0 mm 4 mps 552 mmHg 35%
    18:00 +17°C° 0 mm 4 mps 552 mmHg 37%
    19:00 +14°C° 0 mm 3 mps 551 mmHg 38%
    20:00 +12°C° 0 mm 3 mps 550 mmHg 40%
    21:00 +10°C° 0 mm 2 mps 550 mmHg 41%
    22:00 +10°C° 0 mm 2 mps 549 mmHg 39%
    23:00 +9°C° 0 mm 2 mps 549 mmHg 36%

    Mañana, 20 Febrero, Miércoles

    Tiempo Temperatura Precipitaciones Viento Presión Humedad
    00:00 +9°C° 0 mm 2 mps 549 mmHg 34%
    01:00 +9°C° 0 mm 2 mps 548 mmHg 37%
    02:00 +8°C° 0 mm 2 mps 548 mmHg 39%
    03:00 +8°C° 0 mm 2 mps 547 mmHg 41%
    04:00 +7°C° 0 mm 2 mps 547 mmHg 45%
    05:00 +7°C° 0 mm 2 mps 547 mmHg 48%
    06:00 +7°C° 0 mm 2 mps 547 mmHg 52%
    07:00 +9°C° 0 mm 2 mps 549 mmHg 46%
    08:00 +13°C° 0 mm 2 mps 550 mmHg 40%
    09:00 +15°C° 0 mm 2 mps 552 mmHg 33%
    10:00 +17°C° 0 mm 2 mps 553 mmHg 29%
    11:00 +19°C° 0 mm 2 mps 554 mmHg 25%
    12:00 +21°C° 0 mm 2 mps 554 mmHg 21%
    13:00 +21°C° 0 mm 3 mps 554 mmHg 22%
    14:00 +21°C° 0 mm 3 mps 553 mmHg 22%
    15:00 +21°C° 0 mm 3 mps 553 mmHg 23%
    16:00 +20°C° 0 mm 3 mps 552 mmHg 29%
    17:00 +18°C° 0 mm 3 mps 551 mmHg 36%
    18:00 +16°C° 0 mm 3 mps 550 mmHg 42%
    19:00 +14°C° 0 mm 2 mps 550 mmHg 51%
    20:00 +12°C° 0 mm 1 mps 549 mmHg 60%
    21:00 +10°C° 0 mm 1 mps 549 mmHg 69%
    22:00 +10°C° 0 mm 1 mps 549 mmHg 71%
    23:00 +10°C° 0 mm 1 mps 549 mmHg 73%

    Pasado mañana, 21 Febrero, Jueves

    Tiempo Temperatura Precipitaciones Viento Presión Humedad
    00:00 +9°C° 0 mm 1 mps 549 mmHg 75%
    01:00 +9°C° 0 mm 1 mps 548 mmHg 71%
    02:00 +9°C° 0 mm 1 mps 548 mmHg 67%
    03:00 +8°C° 0 mm 1 mps 548 mmHg 64%
    04:00 +8°C° 0 mm 1 mps 548 mmHg 60%
    05:00 +8°C° 0 mm 1 mps 548 mmHg 57%
    06:00 +6°C° 0 mm 2 mps 548 mmHg 53%
    07:00 +10°C° 0 mm 1 mps 549 mmHg 48%
    08:00 +12°C° 0 mm 1 mps 551 mmHg 43%
    09:00 +15°C° 0 mm 1 mps 553 mmHg 39%
    10:00 +16°C° 0 mm 2 mps 554 mmHg 35%
    11:00 +18°C° 0 mm 2 mps 554 mmHg 32%
    12:00 +20°C° 0 mm 3 mps 555 mmHg 28%
    13:00 +20°C° 0 mm 3 mps 554 mmHg 28%
    14:00 +20°C° 0 mm 3 mps 554 mmHg 28%
    15:00 +21°C° 0 mm 4 mps 553 mmHg 27%
    16:00 +19°C° 0 mm 3 mps 552 mmHg 32%
    17:00 +18°C° 0 mm 3 mps 552 mmHg 38%
    18:00 +16°C° 0 mm 2 mps 551 mmHg 43%
    19:00 +15°C° 0 mm 2 mps 550 mmHg 47%
    20:00 +13°C° 0 mm 2 mps 550 mmHg 50%
    21:00 +11°C° 0 mm 1 mps 549 mmHg 54%
    22:00 +10°C° 0 mm 1 mps 549 mmHg 51%
    23:00 +10°C° 0 mm 1 mps 549 mmHg 47%

    22 Febrero, Viernes

    Tiempo Temperatura Precipitaciones Viento Presión Humedad
    00:00 +10°C° 0 mm 1 mps 549 mmHg 44%
    01:00 +9°C° 0 mm 1 mps 549 mmHg 42%
    02:00 +9°C° 0 mm 1 mps 548 mmHg 40%
    03:00 +9°C° 0 mm 1 mps 548 mmHg 37%
    04:00 +8°C° 0 mm 1 mps 548 mmHg 38%
    05:00 +8°C° 0 mm 1 mps 548 mmHg 38%
    06:00 +8°C° 0 mm 1 mps 548 mmHg 38%
    07:00 +10°C° 0 mm 1 mps 550 mmHg 35%
    08:00 +13°C° 0 mm 1 mps 552 mmHg 31%
    09:00 +15°C° 0 mm 0 mps 554 mmHg 28%
    10:00 +18°C° 0 mm 1 mps 555 mmHg 27%
    11:00 +20°C° 0 mm 1 mps 556 mmHg 25%
    12:00 +21°C° 0 mm 2 mps 556 mmHg 23%
    13:00 +21°C° 0 mm 2 mps 556 mmHg 25%
    14:00 +21°C° 0 mm 2 mps 555 mmHg 27%
    15:00 +21°C° 0 mm 3 mps 555 mmHg 29%
    16:00 +20°C° 0.3 mm 2 mps 554 mmHg 36%
    17:00 +18°C° 0.3 mm 2 mps 553 mmHg 43%
    18:00 +17°C° 0.3 mm 2 mps 552 mmHg 50%
    19:00 +15°C° 0.2 mm 2 mps 552 mmHg 58%
    20:00 +13°C° 0.2 mm 1 mps 551 mmHg 65%
    21:00 +11°C° 0.2 mm 1 mps 551 mmHg 72%
    22:00 +11°C° 0 mm 1 mps 551 mmHg 74%
    23:00 +11°C° 0 mm 1 mps 551 mmHg 76%

    23 Febrero, Sábado

    Tiempo Temperatura Precipitaciones Viento Presión Humedad
    00:00 +10°C° 0 mm 1 mps 550 mmHg 79%
    01:00 +10°C° 0 mm 1 mps 550 mmHg 76%
    02:00 +10°C° 0 mm 1 mps 550 mmHg 73%
    03:00 +8°C° 0 mm 2 mps 549 mmHg 70%
    04:00 +8°C° 0 mm 2 mps 549 mmHg 68%
    05:00 +8°C° 0 mm 2 mps 549 mmHg 65%
    06:00 +7°C° 0 mm 2 mps 549 mmHg 63%
    07:00 +11°C° 0 mm 1 mps 551 mmHg 57%
    08:00 +13°C° 0 mm 1 mps 553 mmHg 51%
    09:00 +15°C° 0 mm 1 mps 554 mmHg 45%
    10:00 +18°C° 0 mm 1 mps 555 mmHg 41%
    11:00 +19°C° 0 mm 1 mps 556 mmHg 37%
    12:00 +20°C° 0 mm 2 mps 557 mmHg 34%
    13:00 +20°C° 0.2 mm 2 mps 556 mmHg 37%
    14:00 +19°C° 0.2 mm 2 mps 555 mmHg 40%
    15:00 +19°C° 0.2 mm 2 mps 554 mmHg 43%
    16:00 +18°C° 0.8 mm 2 mps 554 mmHg 48%
    17:00 +17°C° 0.8 mm 2 mps 553 mmHg 53%
    18:00 +16°C° 0.8 mm 2 mps 553 mmHg 58%
    19:00 +14°C° 0.4 mm 1 mps 552 mmHg 64%
    20:00 +13°C° 0.4 mm 1 mps 552 mmHg 70%
    21:00 +11°C° 0.4 mm 1 mps 552 mmHg 76%
    22:00 +11°C° 0.1 mm 1 mps 552 mmHg 78%
    23:00 +10°C° 0.1 mm 1 mps 552 mmHg 79%

    24 Febrero, Domingo

    Tiempo Temperatura Precipitaciones Viento Presión Humedad
    00:00 +10°C° 0.1 mm 1 mps 551 mmHg 81%
    01:00 +10°C° 0 mm 1 mps 551 mmHg 81%
    02:00 +10°C° 0 mm 1 mps 551 mmHg 81%
    03:00 +9°C° 0 mm 1 mps 550 mmHg 82%
    04:00 +9°C° 0 mm 1 mps 550 mmHg 81%
    05:00 +9°C° 0 mm 1 mps 550 mmHg 81%
    06:00 +8°C° 0 mm 1 mps 550 mmHg 80%
    07:00 +11°C° 0 mm 1 mps 552 mmHg 69%
    08:00 +13°C° 0 mm 1 mps 553 mmHg 58%
    09:00 +15°C° 0 mm 1 mps 555 mmHg 47%
    10:00 +16°C° 0 mm 1 mps 555 mmHg 43%
    11:00 +18°C° 0 mm 2 mps 556 mmHg 39%
    12:00 +19°C° 0 mm 3 mps 556 mmHg 35%
    13:00 +19°C° 0.1 mm 3 mps 555 mmHg 38%
    14:00 +19°C° 0.1 mm 3 mps 555 mmHg 41%
    15:00 +19°C° 0.1 mm 3 mps 554 mmHg 44%
    16:00 +17°C° 0.3 mm 3 mps 553 mmHg 55%
    17:00 +16°C° 0.3 mm 3 mps 552 mmHg 65%
    18:00 +13°C° 0.3 mm 3 mps 552 mmHg 75%
    19:00 +12°C° 0 mm 3 mps 552 mmHg 81%
    20:00 +12°C° 0 mm 2 mps 551 mmHg 86%
    21:00 +10°C° 0 mm 2 mps 551 mmHg 92%
    22:00 +10°C° 0 mm 1 mps 551 mmHg 92%
    23:00 +10°C° 0 mm 1 mps 551 mmHg 92%
    Mostrar más